{"data":{"norad_id":64791,"epoch":"2026-05-25T03:51:16.646976Z","epoch_age_seconds":58409,"freshness":"FRESH","line1":"1 64791U 25150B   26145.16060934  .00003316  00000+0  28551-3 0  9993","line2":"2 64791  70.0004 301.5541 0003117 264.3967  95.6837 14.98335639 47974","mean_motion":14.98335639,"eccentricity":0.0003117,"inclination_deg":70.0004,"raan_deg":301.5541,"arg_perigee_deg":264.3967,"mean_anomaly_deg":95.6837,"bstar":0.00028551,"rev_number":4797,"period_min":96.106637426115,"perigee_km":569.87208316811,"apogee_km":574.20482254542,"semimajor_km":6950.1754528568,"source":"CELESTRAK","updated_at":"2026-05-25T13:38:20.562360Z"}}